Location: Arbon
(43.0005°N, 0.7472°E)
Time: 09:50:54
(UTC+00:00)

SR - Pass Details

Date: 28 November 2020
Orbit: 575 x 880 km, 66.7° (Epoch: 21 January)

Event Time Altitude Azimuth Distance (km) Brightness Sun altitude
Rises 02:25:21 0° 335° (NNW) 3,163 - -50.3°
Reaches altitude 10° 02:27:51 10° 344° (NNW) 2,288 - -49.9°
Maximum altitude 02:32:41 35° 50° (NE) 1,269 - -49.0°
Drops below altitude 10° 02:37:49 10° 116° (ESE) 2,446 - -48.2°
Exits shadow 02:40:03 - 124° (ESE) 3,227 ? -47.8°
Sets 02:40:33 0° 125° (SE) 3,412 ? -47.7°
